Details for Ryanair at LIRA




Go Back


Latest METAR
Local Time

LIRA 240720Z 35004KT 300V040 9000 FEW020 19/16 Q1017

24/05/2018, 09:44:48

Description
Results
Ryanair Logo
Number of Pilots based at LIRA
0 Pilots Based here
Number of Ryanair Flights Departed from LIRA
2 Flights Departed
Number of Ryanair Flights Arrived at LIRA
4 Flights Arrived
Number of Ryanair Schedules Departing from LIRA
110 Schedules
Number of Ryanair Schedules Arriving at LIRA
108 Schedules
Number of Ryanair Schedules Departing from LIRA availible today
43 Schedules Today
Number of Ryanair Schedules Arriving at LIRA availible today
43 Schedules Today
Average Landing Rate at LIRA
-163 fpm
Ryanair Average Landing Rate at LIRA
-129 fpm
Total Fuel Purchased at LIRA by Ryanair
15,565.93 kgs / 34,316.65 lbs

Pilots Based at LIRA


Pilot ID
Pilot Name
Pilot Rank
No. of Flights
No. of Flying Hours
There are no pilots assigned to this hub!   Will you be the first?
Content